OE7MFI-13 Weather Reports


time (UTC)temp
F
wind
direction
speed
knots
gust
knots
rain 1hr
in
rain 24hr
in
rain mn
in
humidity
%
barometer
mb
20260502204353 50 0.0 0.0 0.00 0.00 0.00 70
20260502203347 50 0.0 0.0 0.00 0.00 0.00 69
20260502202352 51 0.0 0.0 0.00 0.00 0.00 66
20260502201345 52 0.0 0.0 0.00 0.00 0.00 67
20260502200353 52 0.0 0.0 0.00 0.00 0.00 64
20260502195345 53 0.0 0.0 0.00 0.00 0.00 64
20260502194353 53 0.0 0.0 0.00 0.00 0.00 62
20260502193345 54 0.0 0.0 0.00 0.00 0.00 61
20260502192353 55 0.0 0.0 0.00 0.00 0.00 59
20260502191405 56 0.0 0.0 0.00 0.00 0.00 57
20260502190354 57 0.0 0.0 0.00 0.00 0.00 55
20260502185344 58 0.0 0.0 0.00 0.00 0.00 53
20260502184355 59 0.0 0.0 0.00 0.00 0.00 52
20260502183345 60 0.0 0.0 0.00 0.00 0.00 50
20260502182414 61 0.0 0.0 0.00 0.00 0.00 49
20260502181422 63 0.0 0.0 0.00 0.00 0.00 46
20260502180354 64 0.0 0.0 0.00 0.00 0.00 43
20260502170354 69 304 0.0 0.9 0.00 0.00 0.00 36
20260502163345 70 202 0.0 0.9 0.00 0.00 0.00 34
20260502162353 71 215 0.9 1.7 0.00 0.00 0.00 34
20260502161345 71 227 0.9 0.9 0.00 0.00 0.00 34
20260502160413 72 193 0.9 1.7 0.00 0.00 0.00 32
20260502151345 74 170 0.9 1.7 0.00 0.00 0.00 26
20260502150353 75 196 0.9 0.9 0.00 0.00 0.00 27
20260502130353 77 22 0.0 0.0 0.00 0.00 0.00 22
20260502123405 76 0.0 0.0 0.00 0.00 0.00 24
20260502122353 76 328 0.0 0.0 0.00 0.00 0.00 25
20260502121345 75 349 0.0 0.0 0.00 0.00 0.00 26
20260502120353 75 170 0.0 0.0 0.00 0.00 0.00 26
20260502115345 75 55 0.0 0.0 0.00 0.00 0.00 26
20260502114412 75 307 0.0 0.0 0.00 0.00 0.00 25
20260502113345 75 1 0.0 0.0 0.00 0.00 0.00 25
20260502112353 74 34 0.0 0.0 0.00 0.00 0.00 28
20260502111347 74 1 0.0 0.0 0.00 0.00 0.00 28
20260502110355 74 337 0.0 0.0 0.00 0.00 0.00 28
20260502105405 73 307 0.0 0.0 0.00 0.00 0.00 28
20260502104353 73 339 0.0 0.0 0.00 0.00 0.00 30
20260502103345 73 0.0 0.0 0.00 0.00 0.00 30
20260502102353 72 20 0.0 0.0 0.00 0.00 0.00 29
20260502101345 71 352 0.0 0.9 0.00 0.00 0.00 28
20260502100355 70 30 0.0 0.0 0.00 0.00 0.00 30
20260502091345 67 84 0.0 0.0 0.00 0.00 0.00 40
20260502090353 66 13 0.0 0.0 0.00 0.00 0.00 41
20260502071346 54 334 0.0 0.0 0.00 0.00 0.00 62
20260502070353 52 0.0 0.0 0.00 0.00 0.00 70
20260502065345 49 236 0.0 0.0 0.00 0.00 0.00 73
20260502064353 47 15 0.0 0.0 0.00 0.00 0.00 75
20260502063347 44 0.0 0.0 0.00 0.00 0.00 81
20260502062414 43 299 0.0 0.9 0.00 0.00 0.00 84
20260502060413 40 0.0 0.0 0.00 0.00 0.00 84
20260502055345 39 0.0 0.0 0.00 0.00 0.00 87
20260502054433 37 0.0 0.0 0.00 0.00 0.00 87
20260502053345 35 0.0 0.0 0.00 0.00 0.00 89
20260502052353 33 0.0 0.0 0.00 0.00 0.00 88
20260502051346 33 0.0 0.0 0.00 0.00 0.00 88
20260502050353 33 0.0 0.0 0.00 0.00 0.00 87
20260502045346 33 0.0 0.0 0.00 0.00 0.00 87
20260502044352 33 0.0 0.0 0.00 0.00 0.00 87
20260502043345 33 0.0 0.0 0.00 0.00 0.00 88
20260502042352 33 0.0 0.0 0.00 0.00 0.00 88
20260502041346 33 0.0 0.0 0.00 0.00 0.00 88
20260502040353 33 0.0 0.0 0.00 0.00 0.00 89
20260502035345 33 0.0 0.0 0.00 0.00 0.00 89
20260502034355 33 0.0 0.0 0.00 0.00 0.00 89
20260502033345 33 0.0 0.0 0.00 0.00 0.00 88
20260502032353 33 0.0 0.0 0.00 0.00 0.00 88
20260502031344 33 0.0 0.0 0.00 0.00 0.00 87
20260502030413 33 0.0 0.0 0.00 0.00 0.00 87
20260502025405 33 0.0 0.0 0.00 0.00 0.00 87
20260502024353 34 0.0 0.0 0.00 0.00 0.00 87
20260502023407 34 0.0 0.0 0.00 0.00 0.00 87
20260502022352 34 0.0 0.0 0.00 0.00 0.00 87
20260502021344 34 0.0 0.0 0.00 0.00 0.00 87
20260502020414 34 0.0 0.0 0.00 0.00 0.00 86
20260502015345 34 0.0 0.0 0.00 0.00 0.00 86
20260502014352 35 0.0 0.0 0.00 0.00 0.00 86
20260502013344 35 0.0 0.0 0.00 0.00 0.00 86
20260502012354 35 0.0 0.0 0.00 0.00 0.00 86
20260502011445 35 0.0 0.0 0.00 0.00 0.00 85
20260502010352 36 0.0 0.0 0.00 0.00 0.00 85
20260502005344 36 0.0 0.0 0.00 0.00 0.00 85
20260502004353 36 0.0 0.0 0.00 0.00 0.00 84
20260502003344 36 0.0 0.0 0.00 0.00 0.00 85
20260502002352 36 0.0 0.0 0.00 0.00 0.00 85
20260502001344 37 0.0 0.0 0.00 0.00 0.00 85
20260502000354 37 0.0 0.0 0.00 0.00 0.00 85
20260501235405 37 0.0 0.0 0.00 0.00 0.00 84
20260501234352 37 0.0 0.0 0.00 0.00 0.00 83
20260501233344 38 0.0 0.0 0.00 0.00 0.00 82
20260501232353 38 0.0 0.0 0.00 0.00 0.00 82
20260501231426 38 0.0 0.0 0.00 0.00 0.00 82
20260501230352 39 0.0 0.0 0.00 0.00 0.00 82
20260501225344 39 0.0 0.0 0.00 0.00 0.00 81
20260501224353 39 0.0 0.0 0.00 0.00 0.00 82
20260501223344 39 0.0 0.0 0.00 0.00 0.00 81
20260501222352 39 0.0 0.0 0.00 0.00 0.00 81
20260501221344 40 0.0 0.0 0.00 0.00 0.00 80
20260501220352 40 0.0 0.0 0.00 0.00 0.00 80
20260501215345 41 0.0 0.0 0.00 0.00 0.00 79
20260501214352 41 0.0 0.0 0.00 0.00 0.00 78
20260501213344 41 0.0 0.0 0.00 0.00 0.00 77
20260501212354 42 0.0 0.0 0.00 0.00 0.00 77
20260501211344 42 0.0 0.0 0.00 0.00 0.00 77
20260501210354 42 0.0 0.0 0.00 0.00 0.00 76
20260501205345 43 0.0 0.0 0.00 0.00 0.00 74